IK3JLT-13 Weather Reports


time (UTC)temp
F
wind
direction
speed
knots
gust
knots
rain 1hr
in
rain 24hr
in
rain mn
in
humidity
%
barometer
mb
20260502190820 65 270 3.5 3.5 0.00 0.00 0.00 50 1018.6
20260502185821 65 270 3.5 3.5 0.00 0.00 0.00 50 1018.6
20260502184819 66 270 2.6 3.5 0.00 0.00 0.00 48 1018.4
20260502183818 67 225 2.6 3.5 0.00 0.00 0.00 47 1018.3
20260502182817 67 202 3.5 3.5 0.00 0.00 0.00 46 1018.2
20260502181817 68 225 4.3 7.0 0.00 0.00 0.00 44 1018.1
20260502180815 69 225 3.5 5.2 0.00 0.00 0.00 44 1017.9
20260502163807 77 270 5.2 7.0 0.00 0.00 0.00 26 1018.0
20260502162810 77 202 7.0 8.7 0.00 0.00 0.00 26 1018.1
20260502161808 77 225 7.8 9.6 0.00 0.00 0.00 26 1018.2
20260502160807 78 225 5.2 7.0 0.00 0.00 0.00 26 1018.2
20260502151807 78 225 7.0 9.6 0.00 0.00 0.00 26 1018.6
20260502150806 78 248 7.0 7.8 0.00 0.00 0.00 26 1018.7
20260502123806 76 270 7.0 8.7 0.00 0.00 0.00 26 1020.4
20260502122806 76 225 9.6 12.2 0.00 0.00 0.00 26 1020.5
20260502121806 76 225 9.6 12.2 0.00 0.00 0.00 26 1020.6
20260502120806 76 270 7.8 9.6 0.00 0.00 0.00 25 1020.7
20260502115807 76 315 7.0 7.8 0.00 0.00 0.00 25 1020.8
20260502114806 75 180 7.8 9.6 0.00 0.00 0.00 26 1020.8
20260502113807 75 225 6.1 7.8 0.00 0.00 0.00 25 1020.9
20260502112807 75 270 9.6 10.4 0.00 0.00 0.00 26 1021.2
20260502111806 75 225 9.6 11.3 0.00 0.00 0.00 25 1021.3
20260502110806 75 270 7.0 9.6 0.00 0.00 0.00 26 1021.3
20260502105807 75 248 7.0 9.6 0.00 0.00 0.00 25 1021.6
20260502104807 75 225 6.1 7.8 0.00 0.00 0.00 26 1021.6
20260502103807 74 225 8.7 10.4 0.00 0.00 0.00 26 1021.8
20260502102807 74 225 8.7 9.6 0.00 0.00 0.00 27 1021.9
20260502100807 74 225 8.7 10.4 0.00 0.00 0.00 28 1022.2
20260502090807 72 315 7.0 8.7 0.00 0.00 0.00 31 1022.7
20260502070807 68 180 1.7 2.6 0.00 0.00 0.00 33 1023.6
20260502065807 67 135 1.7 1.7 0.00 0.00 0.00 36 1023.6
20260502064806 65 180 1.7 3.5 0.00 0.00 0.00 40 1023.7
20260502063806 65 225 2.6 3.5 0.00 0.00 0.00 42 1023.8
20260502062808 66 135 2.6 3.5 0.00 0.00 0.00 41 1023.8
20260502061807 65 90 0.9 1.7 0.00 0.00 0.00 42 1023.9
20260502060807 64 0 0.9 1.7 0.00 0.00 0.00 43 1023.8
20260502055807 62 270 0.0 0.9 0.00 0.00 0.00 50 1023.8
20260502054807 59 315 0.9 1.7 0.00 0.00 0.00 51 1023.8
20260502053806 58 315 1.7 2.6 0.00 0.00 0.00 52 1024.0
20260502052806 56 315 1.7 1.7 0.00 0.00 0.00 53 1023.9
20260502051806 56 270 0.9 1.7 0.00 0.00 0.00 55 1023.9
20260502050806 54 315 0.9 1.7 0.00 0.00 0.00 55 1024.0
20260502045807 54 225 0.0 0.0 0.00 0.00 0.00 56 1024.0
20260502044806 53 225 0.0 0.0 0.00 0.00 0.00 60 1024.0
20260502043807 52 315 0.9 1.7 0.00 0.00 0.00 60 1024.0
20260502042806 52 225 1.7 1.7 0.00 0.00 0.00 60 1023.9
20260502041806 52 270 1.7 1.7 0.00 0.00 0.00 60 1023.8
20260502040805 52 315 3.5 3.5 0.00 0.00 0.00 60 1023.9
20260502035806 51 270 3.5 3.5 0.00 0.00 0.00 61 1023.8
20260502034806 51 315 2.6 3.5 0.00 0.00 0.00 61 1023.8
20260502033807 52 270 1.7 1.7 0.00 0.00 0.00 60 1023.9
20260502032806 51 315 3.5 4.3 0.00 0.00 0.00 61 1023.9
20260502031806 51 270 3.5 3.5 0.00 0.00 0.00 61 1023.9
20260502030806 51 270 2.6 3.5 0.00 0.00 0.00 60 1024.0
20260502025719 52 270 0.9 1.7 0.00 0.00 0.00 57 1024.2
20260502024718 53 315 0.0 0.0 0.00 0.00 0.00 56 1024.1
20260502023718 53 315 1.7 2.6 0.00 0.00 0.00 56 1024.1
20260502022717 53 90 3.5 4.3 0.00 0.00 0.00 55 1024.0
20260502021717 53 45 1.7 3.5 0.00 0.00 0.00 56 1024.1
20260502020716 53 45 2.6 3.5 0.00 0.00 0.00 57 1024.1
20260502015716 52 45 3.5 3.5 0.00 0.00 0.00 57 1024.0
20260502014717 52 90 3.5 3.5 0.00 0.00 0.00 57 1024.1
20260502013715 53 90 3.5 4.3 0.00 0.00 0.00 56 1024.2
20260502012715 53 90 2.6 3.5 0.00 0.00 0.00 56 1024.2
20260502011716 53 0 3.5 3.5 0.00 0.00 0.00 56 1024.2
20260502010714 53 0 3.5 4.3 0.00 0.00 0.00 57 1024.3
20260502005714 51 0 3.5 4.3 0.00 0.00 0.00 60 1024.3
20260502004714 51 0 0.9 1.7 0.00 0.00 0.00 60 1024.2
20260502003712 51 270 1.7 1.7 0.00 0.00 0.00 59 1024.1
20260502002710 52 270 0.9 1.7 0.00 0.00 0.00 58 1024.3
20260502001710 52 0 3.5 3.5 0.00 0.00 0.00 59 1024.3
20260502000708 52 0 3.5 3.5 0.00 0.00 0.00 59 1024.4
20260501235710 53 0 2.6 3.5 0.00 0.00 0.00 58 1024.3
20260501234710 53 0 1.7 2.6 0.00 0.00 0.00 58 1024.4
20260501233709 52 22 1.7 2.6 0.00 0.00 0.00 56 1024.4